Notices

What's New in latest Release from April 7th, 2021:

- Updated Glossary, including Speed of Maximum Gust, and Total Hourly Precipitation

- Updated national and regional climate services offices contacts and prices information

- Addition of station inventory lists for 1981-2010, 1971-2000, and 1961-1990 Normals.

If you haven't already, please take our survey and provide feedback about our website: https://eccc.sondage-survey.ca/f/LanguageSelection.aspx?s=442ca660-fcf1-47c0-95a9-59707d6fd709

Hourly Data Report for September 17, 2015

IQALUIT CLIMATE
NUNAVUT

63°44'50.000" N
68°32'40.000" W
33.50 m
2402592
71321
XFB

Download Data

Hourly Data (September 2015)
Hourly Data Report for September 17, 2015
TIME
LST
Temp Definition
°C
Dew Point Definition
°C
Rel Hum Definition
%
Precip. Amount Definition
mm

Wind Dir Definition
10's deg

Wind Spd Definition
km/h
Visibility Definition
km
Stn Press Definition
kPa
Hmdx Definition


Wind Chill Definition


Weather Definition


00:00 2.1 1.0 93 0.0 33 11   101.22     LegendNANA
01:00 2.3 1.0 92 0.0 32 10   101.22     LegendNANA
02:00 2.0 1.0 93 0.0 32 9   101.23     LegendNANA
03:00 1.8 1.2 96 0.0 32 9   101.21     LegendNANA
04:00 1.8 0.9 94 0.0 32 15   101.21     LegendNANA
05:00 2.1 1.2 93 0.0 32 16   101.22     LegendNANA
06:00 2.5 1.2 91 0.0 33 22   101.22     LegendNANA
07:00 2.7 1.2 90 0.0 34 29   101.23     LegendNANA
08:00 3.1 0.8 85 0.0 34 34   101.24     LegendNANA
09:00 3.4 0.0 78 0.0 34 37   101.29     LegendNANA
10:00 3.4 -2.0 68 0.0 33 38   101.37     LegendNANA
11:00 3.4 -1.0 73 0.0 33 32   101.39     LegendNANA
12:00 3.6 -1.5 69 0.0 31 26   101.43     LegendNANA
13:00 2.3 -3.8 64 0.0 35 29   101.46     LegendNANA
14:00 2.4 -4.4 61 0.0 33 27   101.49     LegendNANA
15:00 2.3 -2.8 69 0.0 33 26   101.52     LegendNANA
16:00 2.1 -2.5 72 0.0 32 27   101.56     LegendNANA
17:00 1.8 -4.6 63 0.0 34 25   101.57     LegendNANA
18:00 1.6 -3.7 67 0.0 33 18   101.56     LegendNANA
19:00 0.4 -2.7 80 0.0 31 18   101.59     LegendNANA
20:00 0.4 -2.7 80 0.0 32 18   101.65     LegendNANA
21:00 0.4 -2.2 83 0.0 32 13   101.67     LegendNANA
22:00 0.2 -3.5 76 0.0 32 16   101.67     LegendNANA
23:00 -0.3 -2.9 83 0.0 33 19   101.67   -5 LegendNANA

Notes on Data Quality.

Legend

  • E = Estimated
  • M = Missing
  • NA = Not Available*
  • [empty] = Indicates an unobserved value
Date modified: